Probability
2 7 11 16 21 25 26 25 23 22 20 18 15 14 14 14 12 9 7 5 3 2 1 0 1 1 1 0 0 0 0 0 0 0 1 2 2 1 0 0 0 1 1
3 8 14 18 23 26 27 27 25 22 21 18 16 14 16 16 14 11 7 4 3 3 1 0 0 1 1 1 0 0 0 0 0 0 0 1 1 0 0 0 0 0 1
5 10 17 22 25 27 28 28 26 24 20 18 16 16 17 17 15 12 8 6 4 3 2 1 0 0 1 1 0 0 0 0 0 0 0 0 0 0 0 0 0 0 0
8 12 17 22 24 25 27 27 26 23 20 18 17 16 15 14 11 10 8 8 6 4 3 2 1 0 1 1 0 0 0 0 0 1 0 0 0 0 0 0 0 0 0
11 13 17 20 21 21 22 23 23 20 17 17 15 13 11 9 7 6 5 5 5 3 3 3 2 1 1 0 0 0 0 0 0 0 0 0 0 0 0 0 0 0 0
11 14 16 18 19 19 19 19 18 15 14 13 12 9 8 6 4 2 2 2 1 1 1 1 1 1 1 1 1 0 0 0 0 0 0 0 0 0 0 0 0 0 0
11 13 16 17 18 18 17 15 13 11 10 10 10 9 7 5 2 1 1 1 1 1 0 0 0 1 2 3 3 1 1 0 0 0 0 0 0 0 0 0 0 1 2
10 12 14 16 16 16 14 13 11 10 9 9 9 7 6 4 2 0 1 1 2 1 1 0 0 1 2 4 4 3 2 1 0 0 0 0 0 0 1 1 2 4 4
10 11 13 14 14 13 12 11 11 9 7 7 6 5 4 3 2 0 0 1 1 1 1 1 1 2 2 2 3 3 2 1 0 0 0 0 0 1 2 3 4 4 5
9 10 11 11 11 10 9 8 7 6 4 3 3 3 3 3 2 0 0 0 0 0 1 2 2 3 2 1 1 1 1 0 0 0 0 0 1 2 3 3 5 5 4
9 9 9 9 7 6 5 3 2 2 1 1 2 3 3 3 2 1 0 0 0 0 0 1 2 2 2 1 0 0 0 0 0 0 0 0 2 3 3 3 5 6 6
8 8 7 6 5 4 2 1 0 0 0 1 2 3 3 3 2 1 0 0 0 0 0 0 1 1 1 0 0 0 0 0 0 0 0 1 3 4 4 4 5 6 7
5 6 5 4 4 3 2 1 0 0 0 0 1 2 2 1 1 1 0 0 0 0 0 0 0 0 0 0 0 0 0 1 1 0 0 0 2 4 5 5 4 4 4
4 4 3 3 3 3 2 1 0 0 0 0 0 1 2 1 0 0 0 0 0 0 0 0 0 0 0 0 0 0 1 2 2 1 0 0 1 4 6 5 3 2 1
3 2 2 2 2 2 2 1 0 0 0 0 0 1 2 2 1 0 0 0 0 0 0 0 0 0 0 0 0 0 1 2 2 1 0 0 1 4 6 6 5 2 0
2 1 0 1 1 1 1 0 0 0 0 0 0 0 1 1 1 0 0 0 0 0 0 0 0 0 0 0 0 0 1 2 2 1 0 0 1 3 6 7 6 3 2
2 1 0 0 0 0 0 0 0 0 0 0 0 0 0 0 0 0 0 0 0 0 0 0 0 0 0 0 0 0 0 1 1 1 0 0 0 1 4 6 7 5 4
2 1 0 0 0 0 0 0 0 0 0 0 0 0 0 0 0 0 0 0 0 0 0 0 0 0 0 0 0 0 0 0 0 0 0 0 0 0 1 3 5 5 5
2 1 0 0 0 0 0 0 0 0 0 0 0 0 0 0 0 0 0 0 0 0 0 0 0 0 0 0 0 0 0 0 0 0 0 0 0 0 0 1 2 3 4
1 0 0 0 0 0 0 0 0 0 0 0 0 0 0 0 0 0 0 0 0 0 0 0 0 0 0 0 0 0 0 0 0 0 0 0 0 0 0 0 0 1 2
0 0 0 0 0 0 0 0 0 0 0 0 0 0 0 0 0 0 0 0 0 0 0 0 0 0 0 0 0 0 0 0 0 0 0 0 0 0 0 0 0 0 1
0 0 0 0 0 0 0 0 0 0 0 0 0 0 0 0 0 0 0 0 0 0 0 0 0 0 0 0 0 0 0 0 0 0 0 0 0 0 0 0 0 0 0
0 0 0 0 0 0 0 0 0 0 0 0 0 0 0 0 0 0 0 0 0 0 0 0 0 0 0 0 0 0 0 0 0 0 0 0 0 0 0 0 0 0 0
0 0 0 0 0 0 0 0 0 0 0 0 0 0 0 0 0 0 0 0 0 0 0 0 0 0 0 0 0 0 0 0 0 0 0 0 0 0 0 0 0 0 0
0 0 0 0 0 0 0 0 0 0 0 0 0 0 0 0 0 0 0 0 0 0 0 0 0 0 0 0 0 0 0 0 0 0 0 0 0 0 0 0 0 0 0
0 0 0 0 0 0 0 0 0 0 0 0 0 0 0 0 0 0 0 0 0 0 0 0 0 0 0 0 0 0 0 0 0 0 0 0 0 0 0 0 0 0 0
Wind_Speed
4 4 10 10 11 11 11 11 11 11 11 11 11 10 9 9 9 8 8 8 7 7 6 6 6 5 5 6 6 5 5 5 5 4 4 4 5 4 4 5 4 2 4
6 6 11 11 11 11 11 11 11 11 11 11 11 10 10 9 9 8 7 7 6 6 6 5 5 5 5 5 5 5 5 5 5 4 4 3 3 3 4 4 3 2 3
8 7 9 11 11 12 12 11 11 11 11 10 10 10 9 9 8 8 7 7 6 6 5 5 5 4 4 4 4 4 4 4 3 3 3 2 1 2 2 3 3 3 3
9 7 8 11 12 12 12 12 11 11 10 10 10 9 9 9 8 8 8 7 7 6 6 5 5 4 4 3 3 3 2 3 3 3 2 1 1 1 2 3 2 2 2
8 6 8 12 12 12 12 11 11 10 10 9 9 9 9 9 8 8 7 7 7 6 6 6 5 5 4 3 2 2 2 2 3 2 1 1 1 0 1 2 2 2 2
7 6 8 12 12 12 11 11 10 10 10 9 9 8 8 8 8 8 7 7 6 6 5 5 5 5 4 4 3 2 2 2 2 1 1 1 1 1 1 1 1 2 2
7 5 7 12 12 12 11 11 10 10 9 9 8 8 8 8 8 7 7 6 6 6 5 4 4 4 4 4 3 2 2 3 2 1 0 1 1 1 1 1 1 2 2
8 6 6 11 12 11 11 10 10 9 9 8 8 8 8 7 7 6 6 6 6 6 5 5 4 4 4 4 4 3 3 3 2 1 1 1 2 2 1 1 2 2 3
7 6 5 5 7 10 10 10 9 9 8 8 7 7 7 7 6 6 6 5 5 5 5 5 5 4 4 4 4 4 3 3 2 0 1 1 2 2 2 2 2 3 3
6 6 5 5 5 5 5 8 9 9 8 8 7 7 6 6 6 6 5 5 5 5 5 5 5 5 5 4 4 5 4 3 1 1 1 2 3 3 2 3 3 3 4
6 4 5 5 5 4 4 6 6 7 7 6 5 7 6 3 3 3 4 5 5 5 5 5 6 5 5 5 5 5 4 1 1 1 1 3 4 4 4 4 4 5 5
7 5 4 5 5 4 4 3 2 3 3 3 2 3 2 2 2 3 5 6 6 6 6 6 6 6 4 2 3 4 1 2 1 1 2 5 5 6 5 5 5 5 6
8 6 5 5 5 4 3 3 2 1 2 2 3 2 2 2 2 2 2 3 4 5 4 4 4 3 2 2 2 2 2 1 1 2 3 5 6 6 6 6 6 6 7
7 6 6 5 5 4 4 3 2 2 1 1 1 2 2 1 1 1 1 1 2 2 2 2 2 3 3 2 2 2 2 2 2 2 3 6 6 7 7 7 7 8 8
8 7 6 6 5 5 4 3 3 2 2 2 1 1 2 2 1 1 1 1 1 1 2 2 3 3 3 3 2 2 3 3 3 2 3 6 7 7 8 8 9 9 9
8 8 6 6 6 5 4 3 2 2 2 2 1 1 2 2 1 1 1 1 1 1 1 1 2 2 2 2 3 3 3 3 3 3 3 4 6 7 8 8 9 10 10
9 8 7 7 6 5 5 3 3 2 2 2 1 1 1 1 1 1 1 1 1 1 1 1 2 2 2 3 3 4 3 3 3 4 3 3 3 6 7 9 10 11 11
9 8 7 7 6 5 4 3 2 2 2 2 1 1 1 1 1 1 1 1 1 1 1 1 1 2 2 3 3 3 3 3 4 4 3 3 2 3 5 9 10 11 12
10 9 8 6 7 6 5 3 3 2 2 1 1 1 1 1 1 1 1 0 1 1 1 1 1 1 2 3 4 3 3 3 4 4 3 3 3 3 3 6 9 11 12
8 9 8 7 6 5 4 3 2 2 1 1 1 1 1 1 1 1 0 0 1 1 1 1 2 2 1 3 4 4 4 4 3 3 4 3 3 4 4 4 4 7 11
8 8 8 7 6 5 3 3 3 2 1 1 1 1 1 1 1 1 0 0 1 0 1 1 1 2 2 2 2 4 4 3 3 3 3 3 3 4 4 4 4 4 5
10 9 9 8 7 6 4 3 2 2 2 1 1 0 1 1 1 0 0 0 0 0 1 1 1 1 2 2 1 2 4 4 3 4 3 3 3 3 3 5 4 4 4
10 11 9 9 8 6 5 3 2 2 1 0 0 1 1 1 1 1 1 0 1 0 1 1 1 1 1 2 0 0 1 3 5 3 3 3 3 3 4 4 5 5 5
10 9 9 9 8 6 6 6 6 4 3 3 2 2 2 2 2 2 1 1 1 1 1 2 1 1 1 2 1 1 2 2 3 6 4 3 4 5 5 5 5 5 6
9 9 8 8 7 7 7 7 6 3 2 1 1 1 2 2 2 2 2 2 2 2 2 2 2 2 2 2 2 1 2 2 3 4 8 7 4 4 4 5 5 5 5
7 7 8 8 7 7 7 6 6 5 3 3 2 2 2 2 2 2 2 2 2 2 3 3 3 3 3 3 2 2 2 2 3 3 6 9 8 6 5 4 5 5 5
Wind_Direction
167 173 136 127 120 113 107 104 100 96 93 91 93 91 89 89 88 87 88 89 89 88 87 91 96 96 92 91 93 86 83 84 86 87 89 91 93 101 104 102 99 91 100
152 150 130 125 118 114 110 104 100 96 93 91 90 90 90 89 89 89 89 88 89 90 87 84 92 94 92 93 91 88 86 87 84 81 77 78 84 100 110 112 112 111 109
135 134 129 123 117 113 111 106 101 98 94 92 90 88 87 86 85 86 84 83 81 80 81 81 78 83 86 88 95 90 90 90 83 74 67 51 56 105 122 130 126 122 119
130 129 129 124 120 116 112 108 104 99 96 93 91 89 87 84 83 81 79 77 76 73 73 72 70 69 74 77 86 89 86 83 74 63 64 37 352 117 147 148 143 142 143
125 127 133 127 122 118 114 110 106 103 99 95 92 90 88 86 84 81 77 73 72 71 69 66 64 65 66 69 73 81 80 71 63 57 49 17 334 234 190 183 172 171 171
124 129 136 127 123 119 116 112 108 104 100 97 94 92 89 86 82 77 72 70 67 66 67 66 63 58 60 59 57 59 62 65 46 54 42 2 331 276 228 212 199 202 201
128 133 134 129 126 122 118 115 111 106 102 99 96 94 90 86 82 76 71 66 62 59 57 60 62 58 54 48 43 44 48 46 52 47 31 336 303 296 265 261 254 231 223
133 132 132 131 128 124 120 117 113 109 104 101 98 94 91 87 84 78 71 65 60 55 51 50 50 52 48 42 35 33 29 37 44 20 345 303 299 296 278 262 256 253 243
128 124 120 123 126 126 122 119 114 109 105 103 100 94 89 84 80 74 69 62 56 51 45 39 36 36 36 31 24 21 28 30 46 339 285 287 292 290 295 293 284 274 267
120 122 118 111 111 113 117 117 114 110 105 100 95 89 81 77 75 70 59 54 50 42 36 31 28 26 21 16 14 12 15 27 15 319 282 281 289 278 288 296 299 298 290
130 129 126 120 119 120 123 119 112 110 105 95 87 86 74 58 54 53 44 45 41 33 27 23 17 16 16 9 4 3 5 358 330 295 277 295 286 276 282 287 289 290 290
156 153 142 135 133 131 123 108 97 91 89 83 86 84 74 66 51 49 41 40 35 27 21 17 13 8 9 354 349 357 347 330 314 287 291 304 291 282 281 285 285 289 290
161 157 156 150 144 135 126 122 103 95 94 89 95 96 85 66 48 38 31 23 19 21 12 4 2 354 353 346 334 326 315 313 300 288 292 301 295 290 287 284 283 283 286
159 159 157 153 145 140 133 129 127 123 115 108 108 111 102 85 60 45 39 20 19 9 7 1 354 350 346 338 324 311 308 300 292 291 288 298 292 288 289 289 286 285 285
160 161 160 154 149 142 134 141 132 138 140 136 117 107 118 116 105 80 41 27 10 7 10 359 354 353 347 336 324 315 300 294 287 281 292 297 297 295 294 296 291 287 288
165 164 161 158 153 143 143 144 143 143 140 126 121 127 124 127 126 109 58 22 354 350 355 359 351 347 332 327 321 310 294 288 282 281 281 295 297 297 295 296 296 292 290
166 162 161 159 151 147 144 147 139 140 132 130 134 124 116 117 122 120 84 11 321 332 358 6 355 352 342 333 318 308 302 297 291 286 282 280 284 292 297 299 299 298 295
160 159 164 158 151 150 147 145 140 138 131 135 134 119 109 107 117 107 82 330 315 349 5 0 350 347 335 325 314 305 303 304 296 284 278 278 281 284 291 298 298 297 298
165 162 162 155 156 155 148 144 140 136 134 141 131 123 121 104 106 113 114 306 343 8 354 337 350 335 324 322 311 305 307 304 296 292 285 282 278 280 283 297 303 303 300
163 161 159 154 156 148 136 121 109 104 117 132 148 158 145 133 109 104 105 6 29 25 352 345 329 327 304 308 312 314 306 300 298 288 281 282 280 285 295 292 293 302 302
160 160 162 157 161 152 145 149 151 166 177 182 195 172 157 151 140 125 78 1 26 17 314 316 310 325 326 332 341 325 314 303 300 284 281 276 278 282 289 291 288 285 292
171 170 168 167 166 168 167 166 160 158 176 193 200 185 191 182 184 164 158 238 294 337 343 328 339 333 324 0 10 340 331 326 314 293 287 275 276 282 288 293 285 279 284
176 176 175 174 170 170 159 136 110 81 63 60 220 222 236 215 205 200 197 216 262 217 258 275 261 221 287 308 1 146 318 299 313 301 293 283 281 283 283 284 281 277 281
183 177 172 171 170 167 158 156 160 167 182 209 203 214 241 232 225 222 218 222 239 242 247 258 252 230 225 277 301 242 226 247 292 306 303 293 286 283 279 283 284 278 273
179 173 171 168 170 166 165 166 168 175 190 190 184 204 237 253 244 238 229 222 234 245 249 252 258 251 231 239 254 270 285 281 255 275 298 307 299 275 272 268 270 272 270
170 167 167 168 173 171 169 170 176 178 181 175 191 210 235 254 257 256 250 240 240 245 250 248 243 246 245 244 248 242 245 258 270 267 285 299 301 297 285 268 266 270 268